San Bernardino, CA

3:31 AM PST on December 15, 2019 (GMT -0800)
San Bernardino International

Weather History for KSBD - May, 2019

Change the Weather History Date:

Sunday, May 5, 2019

  Actual Average Record
Temperature  
Mean Temperature 66 °F -  
Max Temperature 77 °F 75 °F 96 °F (2018)
Min Temperature 56 °F 51 °F 51 °F (2012)
Cooling Degree Days 2    
Growing Degree Days 16 (Base 50)    
Moisture  
Dew Point 47 °F    
Average Humidity 62    
Maximum Humidity 82    
Minimum Humidity 24    
Precipitation  
Precipitation 0.00 in - - ()
Sea Level Pressure  
Sea Level Pressure 29.87 in    
Wind  
Wind Speed 5 mph (WSW)    
Max Wind Speed 21 mph    
Max Gust Speed -    
Visibility 8 miles    
Events      
Averages and records for this station are not official NWS values.
T = Trace of Precipitation, MM = Missing Value Source: NWS Daily Summary

Daily Weather History Graph

Daily Weather History Graph

Search for Another Location

Airport or City:

Astronomy

May. 05, 2019 Rise Set
Actual Time 5:55 AM PDT 7:35 PM PDT
Civil Twilight 5:28 AM PDT 8:02 PM PDT
Nautical Twilight 4:56 AM PDT 8:35 PM PDT
Astronomical Twilight 4:22 AM PDT 9:09 PM PDT
Moon 6:41 AM PDT (5/5) 8:34 PM PDT (5/5)
Length of Visible Light 14h 34m
Length of Day
13h 40m
New Moon, 1% of the Moon is Illuminated
May 5
New Moon
May 11
First Quarter
May 18
Full
May 26
Last Quarter
Jun 3
New

Hourly Weather History & Observations

Time (PDT) Temp. Dew Point Humidity Pressure Visibility Wind Dir Wind Speed Gust Speed Precip Events Conditions
12:00 AM 60.8 °F 49.8 °F 67% 29.89 in 10.0 mi WSW 4.6 mph - N/A   Clear
12:20 AM 60.1 °F 49.8 °F 69% 29.89 in 10.0 mi WSW 5.8 mph - N/A   Clear
12:40 AM 59.9 °F 50.0 °F 70% 29.89 in 10.0 mi SW 4.6 mph - N/A   Clear
1:00 AM 59.9 °F 50.0 °F 70% 29.89 in 10.0 mi WSW 4.6 mph - N/A   Clear
1:20 AM 59.2 °F 49.6 °F 71% 29.89 in 10.0 mi WSW 3.5 mph - N/A   Clear
1:40 AM 57.7 °F 49.1 °F 73% 29.88 in 10.0 mi WSW 6.9 mph - N/A   Clear
2:00 AM 57.6 °F 49.6 °F 75% 29.88 in 10.0 mi WSW 5.8 mph - N/A   Clear
2:20 AM 57.4 °F 50.0 °F 76% 29.88 in 10.0 mi WSW 6.9 mph - N/A   Clear
2:40 AM 57.0 °F 50.2 °F 78% 29.88 in 10.0 mi WSW 6.9 mph - N/A   Scattered Clouds
3:00 AM 56.7 °F 50.7 °F 80% 29.88 in 7.0 mi WSW 8.1 mph - N/A   Overcast
3:20 AM 57.2 °F 51.3 °F 81% 29.88 in 5.0 mi WSW 5.8 mph - N/A   Haze
3:40 AM 57.2 °F 51.8 °F 82% 29.88 in 5.0 mi WSW 3.5 mph - N/A   Haze
4:00 AM 57.2 °F 51.4 °F 81% 29.87 in 7.0 mi Calm Calm - N/A   Overcast
4:20 AM 57.4 °F 51.4 °F 81% 29.87 in 7.0 mi Calm Calm - N/A   Overcast
4:40 AM 57.6 °F 51.3 °F 79% 29.87 in 7.0 mi Calm Calm - N/A   Overcast
5:00 AM 57.6 °F 51.1 °F 79% 29.87 in 7.0 mi Calm Calm - N/A   Overcast
5:20 AM 57.6 °F 51.1 °F 79% 29.86 in 7.0 mi Calm Calm - N/A   Overcast
5:40 AM 57.6 °F 50.9 °F 78% 29.87 in 7.0 mi Calm Calm - N/A   Overcast
6:48 AM 57.2 °F 50.0 °F 77% 29.87 in 4.0 mi Calm Calm - N/A   Haze
7:47 AM 59.0 °F 50.0 °F 72% 29.89 in 4.0 mi Calm Calm - N/A   Haze
8:58 AM 59.0 °F 50.0 °F 72% 29.91 in 4.0 mi Calm Calm - N/A   Haze
9:50 AM 62.6 °F 48.2 °F 59% 29.90 in 4.0 mi Calm Calm - N/A   Haze
10:50 AM 66.2 °F 48.2 °F 52% 29.90 in 4.0 mi West 4.6 mph - N/A   Haze
11:50 AM 68.0 °F 48.2 °F 49% 29.89 in 4.0 mi SSW 4.6 mph - N/A   Haze
12:50 PM 71.6 °F 46.4 °F 41% 29.86 in 5.0 mi WNW 5.8 mph - N/A   Haze
1:47 PM 75.2 °F 37.4 °F 25% 29.85 in 7.0 mi West 6.9 mph - N/A   Partly Cloudy
2:50 PM 77.0 °F 37.4 °F 24% 29.83 in 7.0 mi West 11.5 mph - N/A   Partly Cloudy
3:50 PM 77.0 °F 39.2 °F 26% 29.81 in 7.0 mi SW 10.4 mph - N/A   Partly Cloudy
4:50 PM 75.2 °F 41.0 °F 29% 29.80 in 7.0 mi WSW 13.8 mph - N/A   Partly Cloudy
5:50 PM 71.6 °F 44.6 °F 38% 29.80 in 7.0 mi West 20.7 mph - N/A   Partly Cloudy
6:46 PM 66.2 °F 46.4 °F 49% 29.82 in 7.0 mi West 20.7 mph - N/A   Scattered Clouds
7:48 PM 62.6 °F 46.4 °F 55% 29.85 in 7.0 mi West 6.9 mph - N/A   Mostly Cloudy
8:45 PM 62.6 °F 41.0 °F 45% 29.88 in 7.0 mi WSW 8.1 mph - N/A   Overcast
9:40 PM 61.2 °F 43.0 °F 51% 29.89 in 10.0 mi SW 5.8 mph - N/A   Overcast
10:00 PM 60.6 °F 44.4 °F 55% 29.90 in 10.0 mi WSW 6.9 mph - N/A   Overcast
10:20 PM 59.4 °F 44.1 °F 57% 29.90 in 10.0 mi WSW 8.1 mph - N/A   Mostly Cloudy
10:40 PM 59.2 °F 43.7 °F 57% 29.90 in 10.0 mi WSW 6.9 mph - N/A   Mostly Cloudy
11:00 PM 59.0 °F 43.9 °F 57% 29.90 in 10.0 mi SW 5.8 mph - N/A   Scattered Clouds
11:20 PM 58.6 °F 44.6 °F 60% 29.90 in 10.0 mi WSW 3.5 mph - N/A   Scattered Clouds
11:40 PM 58.1 °F 44.4 °F 60% 29.90 in 10.0 mi WSW 3.5 mph - N/A   Mostly Cloudy